Starlink 30150

operational
NORAD ID: 57621 Int'l Des: 2023-119 Owner: SPXS Country: US Constellation: starlink
LEOCIRCULAR

Starlink 30150について

説明を読み込み中...

リアルタイム位置

3D地球を読み込み中...

次回通過

高度履歴

Altitude vs Time

uPlot chart will show altitude changes over time

軌道要素

1 57621U 23119V 25305.59676654 -.00000014 00000-0 14052-4 0 9992
2 57621 43.0036 57.9549 0001297 274.1887 85.8808 15.02535024123813
Epoch: Nov 1, 2025 • Age: 8 hours

現在のステータス

高度 559.9 km
速度 7.59 km/s
衛星直下点 27.71°N, 71.37°E
打ち上げ日 Aug 11, 2023
運用期間 2.2 years
タイプ internet

技術仕様

分類 Payload
質量 730.00 kg
乾燥質量 700.00 kg
総質量 730.00 kg
長さ 0.30 m
直径 4.10 m
スパン 29.00 m
形状 Box + pan
製造者 SPXS
バスタイプ Starlink V2M
フェーズステータス In Orbit
所有者/国 SPXS/US

大規模コンステレーション

Loading constellations...